Hourly Weather Roundup
Issued by NWS Central Illinois

Home | Current Version | Previous Version | Text Only | Print | Product List | Glossary Off
Versions: 1 2 3 4 5 6 7 8 9 10 11 12 13 14 15 16 17 18 19 20 21 22 23 24 25 26 27 28 29 30 31 32 33 34 35 36 37 38 39 40 41 42 43 44 45 46 47 48 49 50

000
NZUS43 KILX 311310
HWRILX

AREA WEATHER ROUNDUP
NATIONAL WEATHER SERVICE, LINCOLN IL
800 AM CDT FRI JUL 31 2015


CITY           SKY/WX    TMP DP  RH WIND       PRES   REMARKS
BLOOMINGTON    SUNNY     74  66  75 W8        30.11R
CHAMPAIGN      SUNNY     70  66  87 W7        30.10S
DANVILLE       SUNNY     71  67  88 CALM      30.06S
DECATUR        SUNNY     77  66  68 NW6       30.11R
EFFINGHAM      SUNNY     74  64  69 NW6       30.13R
FLORA          SUNNY     72  65  77 CALM      30.12R
GALESBURG      SUNNY     73  66  78 W7        30.10S
JACKSONVILLE   SUNNY     75  69  80 W5        30.12S
LACON          SUNNY     72  66  80 SW6       30.06F
LAWRENCEVILLE  SUNNY     73  67  81 NW5       30.10R
LITCHFIELD     SUNNY     71  65  80 W5        30.13S
$$


CITY           SKY/WX    TMP DP  RH WIND       PRES   REMARKS
LINCOLN        SUNNY     76  66  71 CALM      30.10S
MACOMB         SUNNY     72  67  84 W5        30.13S
MATTOON        SUNNY     73  64  73 NW8       30.10S
MT CARMEL AP   SUNNY     73  68  83 NW3       30.10R
OLNEY-NOBLE AP SUNNY     72  66  83 NW6       30.11S
PARIS          SUNNY     71  67  90 W3        30.10S
PEORIA         SUNNY     75  65  70 W6        30.10R
PONTIAC        SUNNY     72  70  92 SW5       30.08S
RANTOUL        SUNNY     73  68  84 W7        30.09S
ROBINSON       SUNNY     71  67  87 NW3       30.11R
SPRINGFIELD    SUNNY     74  67  78 W5        30.11S
TAYLORVILLE    SUNNY     70  66  88 W3        30.12R
$$

...REGIONAL REPORTS...


CITY           SKY/WX    TMP DP  RH WIND       PRES   REMARKS
CHICAGO O`HARE PTSUNNY   73  60  63 W13       30.03R
KANKAKEE       SUNNY     73  68  84 W6        30.06F
MOLINE         SUNNY     74  66  76 W8        30.08R
MOUNT STERLING NOT AVBL
MOUNT VERNON   SUNNY     73  64  73 CALM      30.13S
PITTSFIELD     SUNNY     74  64  70 W5        30.14S
QUINCY         SUNNY     73  65  75 W6        30.13S
ROCKFORD       MOSUNNY   73  65  75 W7        30.05S
$$


CITY           SKY/WX    TMP DP  RH WIND       PRES   REMARKS
BURLINGTON     SUNNY     73  66  78 NW5       30.11R
CEDAR RAPIDS   NOT AVBL
DES MOINES     MOSUNNY   74  64  71 N5        30.14R
KIRKSVILLE     PTSUNNY   71  63  75 W7        30.16R
OTTUMWA        MOSUNNY   72  66  81 W9        30.12R
ST LOUIS       SUNNY     78  65  63 W8        30.14S HX  80
$$


CITY           SKY/WX    TMP DP  RH WIND       PRES   REMARKS
TERRE HAUTE    SUNNY     74  67  78 NW5       30.09R
EVANSVILLE     SUNNY     76  65  68 N6        30.10R
INDIANAPOLIS   MOSUNNY   74  63  68 NW8       30.07R
LAFAYETTE      SUNNY     69  66  90 W3        30.07S
MADISON        SUNNY     71  61  70 W5        30.01S
MILWAUKEE      MOSUNNY   74  58  57 W10       29.99S
$$




USA.gov is the U.S. government's official web portal to all federal, state and local government web resources and services.